TOM30E EGCC-LGKF

Flight info

Callsign TOM30E
Flight time 3h 6m
Altitude 37000
Route SANBA N859 HON L15 MOTOX DCT RUCAC DCT LESDO DCT BUBLI DCT LUVAL DCT SHARA DCT DEVDI DCT RIPUS DCT RESIA DCT LUPAL DCT LATAN UM872 ASTUS
Aircraft B738/M-SDFGHIJ1RWXYZ/LB1

Departure

Time 2026-05-07 13:51
Airport Manchester Airport (EGCC)

Arrival

Time 2026-05-07 16:57
Airport Kefallinia Airport (LGKF)
Time Latitude Longitude Altitude Speed Heading
2026-05-07 13:13 53.36976 -2.28652 254 ft 0 kts 135°
2026-05-07 13:37 53.36978 -2.28655 254 ft 3 kts 135°
2026-05-07 13:37 53.36994 -2.28683 254 ft 1 kts 135°
2026-05-07 13:38 53.37011 -2.28711 254 ft 4 kts 135°
2026-05-07 13:38 53.37030 -2.28743 254 ft 3 kts 135°
2026-05-07 13:38 53.37023 -2.28733 254 ft 4 kts 137°
2026-05-07 13:38 53.37001 -2.28722 254 ft 4 kts 187°
2026-05-07 13:39 53.36984 -2.28746 254 ft 4 kts 225°
2026-05-07 13:39 53.36971 -2.28767 254 ft 4 kts 225°
2026-05-07 13:39 53.36956 -2.28792 254 ft 0 kts 225°
2026-05-07 13:42 53.36953 -2.28797 254 ft 3 kts 225°
2026-05-07 13:42 53.36913 -2.28863 254 ft 12 kts 224°
2026-05-07 13:43 53.36853 -2.28961 254 ft 12 kts 224°
2026-05-07 13:43 53.36784 -2.29028 254 ft 12 kts 197°
2026-05-07 13:43 53.36716 -2.28991 254 ft 11 kts 135°
2026-05-07 13:43 53.36658 -2.28906 254 ft 11 kts 159°
2026-05-07 13:44 53.36599 -2.28834 254 ft 11 kts 124°
2026-05-07 13:44 53.36561 -2.28731 254 ft 10 kts 128°
2026-05-07 13:44 53.36511 -2.28642 254 ft 11 kts 134°
2026-05-07 13:44 53.36446 -2.28532 254 ft 15 kts 133°
2026-05-07 13:45 53.36396 -2.28385 254 ft 14 kts 117°
2026-05-07 13:45 53.36332 -2.28263 254 ft 14 kts 135°
2026-05-07 13:45 53.36266 -2.28152 254 ft 13 kts 135°
2026-05-07 13:45 53.36202 -2.28046 254 ft 13 kts 135°
2026-05-07 13:46 53.36138 -2.27947 254 ft 12 kts 141°
2026-05-07 13:46 53.36064 -2.27884 254 ft 12 kts 184°
2026-05-07 13:46 53.35985 -2.27889 254 ft 12 kts 149°
2026-05-07 13:46 53.35967 -2.27870 254 ft 1 kts 149°
2026-05-07 13:47 53.35939 -2.27853 254 ft 9 kts 169°
2026-05-07 13:47 53.35856 -2.27814 252 ft 15 kts 138°
2026-05-07 13:47 53.35784 -2.27684 250 ft 15 kts 141°
2026-05-07 13:47 53.35692 -2.27618 246 ft 14 kts 160°
2026-05-07 13:48 53.35640 -2.27552 245 ft 6 kts 139°
2026-05-07 13:48 53.35608 -2.27506 244 ft 7 kts 141°
2026-05-07 13:48 53.35572 -2.27458 244 ft 7 kts 142°
2026-05-07 13:48 53.35536 -2.27410 246 ft 7 kts 140°
2026-05-07 13:49 53.35477 -2.27329 247 ft 14 kts 141°
2026-05-07 13:49 53.35393 -2.27217 245 ft 16 kts 142°
2026-05-07 13:49 53.35287 -2.27203 239 ft 17 kts 193°
2026-05-07 13:49 53.35159 -2.27247 230 ft 20 kts 192°
2026-05-07 13:50 53.35041 -2.27292 226 ft 13 kts 199°
2026-05-07 13:50 53.34967 -2.27406 224 ft 19 kts 231°
2026-05-07 13:50 53.34741 -2.27871 222 ft 86 kts 231°
2026-05-07 13:50 53.34230 -2.28927 228 ft 145 kts 230°
2026-05-07 13:51 53.33553 -2.30365 634 ft 163 kts 228°
2026-05-07 13:51 53.32811 -2.31877 1327 ft 173 kts 227°
2026-05-07 13:51 53.32067 -2.33690 1652 ft 207 kts 247°
2026-05-07 13:51 53.32069 -2.36251 1919 ft 238 kts 281°
2026-05-07 13:52 53.32506 -2.39071 2290 ft 258 kts 281°
2026-05-07 13:52 53.32596 -2.42035 3138 ft 254 kts 252°
2026-05-07 13:52 53.31764 -2.44526 4032 ft 248 kts 221°
2026-05-07 13:52 53.30308 -2.46008 4728 ft 248 kts 196°
2026-05-07 13:53 53.28583 -2.46142 5334 ft 256 kts 170°
2026-05-07 13:53 53.26923 -2.45016 6195 ft 260 kts 153°
2026-05-07 13:53 53.25332 -2.43514 6974 ft 266 kts 153°
2026-05-07 13:53 53.23705 -2.42035 7801 ft 267 kts 154°
2026-05-07 13:54 53.22060 -2.40567 8654 ft 268 kts 154°
2026-05-07 13:54 53.20409 -2.39104 9490 ft 270 kts 155°
2026-05-07 13:54 53.18735 -2.37631 10232 ft 274 kts 155°
2026-05-07 13:54 53.16984 -2.36101 10543 ft 295 kts 155°
2026-05-07 13:55 53.15099 -2.34459 10784 ft 316 kts 154°
2026-05-07 13:55 53.13122 -2.32731 11348 ft 325 kts 154°
2026-05-07 13:55 53.11136 -2.30997 12093 ft 328 kts 154°
2026-05-07 13:55 53.09104 -2.29224 12849 ft 331 kts 154°
2026-05-07 13:56 53.07054 -2.27437 13584 ft 335 kts 154°
2026-05-07 13:56 53.04978 -2.25631 14256 ft 339 kts 154°
2026-05-07 13:56 53.02875 -2.23805 14917 ft 343 kts 154°
2026-05-07 13:56 53.00752 -2.21963 15575 ft 346 kts 154°
2026-05-07 13:57 52.98602 -2.20100 16197 ft 351 kts 154°
2026-05-07 13:57 52.96421 -2.18211 16819 ft 356 kts 154°
2026-05-07 13:57 52.94213 -2.16300 17462 ft 360 kts 154°
2026-05-07 13:57 52.91982 -2.14371 18089 ft 364 kts 154°
2026-05-07 13:58 52.89719 -2.12416 18652 ft 369 kts 154°
2026-05-07 13:58 52.87434 -2.10444 19233 ft 371 kts 154°
2026-05-07 13:58 52.85138 -2.08464 19816 ft 373 kts 154°
2026-05-07 13:58 52.82827 -2.06474 20376 ft 376 kts 154°
2026-05-07 13:59 52.80493 -2.04466 20926 ft 379 kts 154°
2026-05-07 13:59 52.78141 -2.02445 21482 ft 382 kts 154°
2026-05-07 13:59 52.75772 -2.00413 22016 ft 385 kts 154°
2026-05-07 13:59 52.73387 -1.98369 22536 ft 388 kts 154°
2026-05-07 14:00 52.70979 -1.96308 23010 ft 392 kts 154°
2026-05-07 14:00 52.68547 -1.94229 23513 ft 395 kts 154°
2026-05-07 14:00 52.66132 -1.92167 23974 ft 397 kts 154°
2026-05-07 14:00 52.63645 -1.90046 24443 ft 398 kts 154°
2026-05-07 14:01 52.61208 -1.87971 24880 ft 400 kts 153°
2026-05-07 14:01 52.58731 -1.85864 25310 ft 402 kts 153°
2026-05-07 14:01 52.56237 -1.83746 25725 ft 404 kts 153°
2026-05-07 14:01 52.53729 -1.81618 26143 ft 406 kts 153°
2026-05-07 14:02 52.51210 -1.79484 26554 ft 408 kts 153°
2026-05-07 14:02 52.48676 -1.77340 26914 ft 411 kts 153°
2026-05-07 14:02 52.46124 -1.75182 27278 ft 414 kts 153°
2026-05-07 14:02 52.43560 -1.73018 27682 ft 415 kts 153°
2026-05-07 14:03 52.40983 -1.70845 28079 ft 417 kts 153°
2026-05-07 14:03 52.38398 -1.68670 28455 ft 419 kts 153°
2026-05-07 14:03 52.35896 -1.66220 28791 ft 421 kts 144°
2026-05-07 14:03 52.33655 -1.63128 29140 ft 423 kts 135°
2026-05-07 14:04 52.31623 -1.59636 29517 ft 424 kts 134°
2026-05-07 14:04 52.29596 -1.56104 29889 ft 426 kts 133°
2026-05-07 14:04 52.27560 -1.52563 30191 ft 428 kts 134°
2026-05-07 14:04 52.25504 -1.49014 30332 ft 434 kts 134°
2026-05-07 14:05 52.23414 -1.45434 30500 ft 437 kts 134°
2026-05-07 14:05 52.21337 -1.41893 30810 ft 437 kts 134°
2026-05-07 14:05 52.19229 -1.38314 31132 ft 437 kts 134°
2026-05-07 14:05 52.17127 -1.34752 31475 ft 436 kts 134°
2026-05-07 14:06 52.15027 -1.31198 31829 ft 436 kts 134°
2026-05-07 14:06 52.12921 -1.27640 32162 ft 435 kts 134°
2026-05-07 14:06 52.10823 -1.24098 32467 ft 435 kts 134°
2026-05-07 14:06 52.08726 -1.20563 32793 ft 434 kts 134°
2026-05-07 14:07 52.06625 -1.17024 33108 ft 434 kts 135°
2026-05-07 14:07 52.04530 -1.13503 33402 ft 434 kts 135°
2026-05-07 14:07 52.02423 -1.09975 33615 ft 436 kts 135°
2026-05-07 14:07 52.00282 -1.06473 33741 ft 439 kts 136°
2026-05-07 14:08 51.98120 -1.02963 34040 ft 438 kts 135°
2026-05-07 14:08 51.95990 -0.99426 34363 ft 436 kts 135°
2026-05-07 14:08 51.93883 -0.95887 34589 ft 436 kts 135°
2026-05-07 14:08 51.91775 -0.92344 34757 ft 438 kts 135°
2026-05-07 14:09 51.89681 -0.88832 34951 ft 439 kts 135°
2026-05-07 14:09 51.87561 -0.85293 35186 ft 438 kts 135°
2026-05-07 14:09 51.85434 -0.81750 35409 ft 438 kts 135°
2026-05-07 14:09 51.83302 -0.78208 35600 ft 439 kts 135°
2026-05-07 14:10 51.81166 -0.74666 35803 ft 439 kts 135°
2026-05-07 14:10 51.79032 -0.71134 35923 ft 441 kts 136°
2026-05-07 14:10 51.76876 -0.67579 35978 ft 445 kts 136°
2026-05-07 14:10 51.74701 -0.64004 36163 ft 445 kts 136°
2026-05-07 14:11 51.72535 -0.60447 36418 ft 444 kts 136°
2026-05-07 14:11 51.70368 -0.56893 36663 ft 443 kts 136°
2026-05-07 14:11 51.68204 -0.53346 36876 ft 443 kts 136°
2026-05-07 14:11 51.66044 -0.49811 37024 ft 443 kts 136°
2026-05-07 14:12 51.63955 -0.46139 37034 ft 448 kts 128°
2026-05-07 14:12 51.60684 -0.37578 37043 ft 449 kts 121°
2026-05-07 14:13 51.57593 -0.28901 37050 ft 446 kts 122°
2026-05-07 14:13 51.54479 -0.20311 37046 ft 443 kts 122°
2026-05-07 14:14 51.51364 -0.11852 37049 ft 442 kts 122°
2026-05-07 14:14 51.48218 -0.03373 37052 ft 442 kts 123°
2026-05-07 14:15 51.45114 0.04964 37076 ft 443 kts 123°
2026-05-07 14:15 51.41944 0.13449 37079 ft 444 kts 123°
2026-05-07 14:16 51.38889 0.21607 37080 ft 446 kts 123°
2026-05-07 14:16 51.35687 0.30129 37077 ft 448 kts 123°
2026-05-07 14:17 51.32458 0.38692 36891 ft 450 kts 123°
2026-05-07 14:17 51.29209 0.47281 36881 ft 452 kts 123°
2026-05-07 14:18 51.25951 0.55866 36883 ft 453 kts 123°
2026-05-07 14:18 51.22681 0.64453 36897 ft 454 kts 123°
2026-05-07 14:19 51.19434 0.73094 36931 ft 455 kts 120°
2026-05-07 14:19 51.16625 0.82151 36990 ft 456 kts 117°
2026-05-07 14:20 51.13949 0.91302 37023 ft 455 kts 117°
2026-05-07 14:20 51.11225 1.00396 37070 ft 454 kts 117°
2026-05-07 14:21 51.08467 1.09419 37076 ft 453 kts 118°
2026-05-07 14:21 51.05697 1.18409 37077 ft 452 kts 118°
2026-05-07 14:22 51.02926 1.27372 37074 ft 451 kts 118°
2026-05-07 14:22 51.00172 1.36254 37074 ft 450 kts 118°
2026-05-07 14:23 50.97403 1.45157 37067 ft 450 kts 118°
2026-05-07 14:23 50.94630 1.54039 37076 ft 449 kts 118°
2026-05-07 14:24 50.91851 1.62912 37076 ft 449 kts 118°
2026-05-07 14:24 50.89022 1.71744 37071 ft 449 kts 123°
2026-05-07 14:25 50.85097 1.79314 37070 ft 444 kts 139°
2026-05-07 14:25 50.80585 1.86003 37066 ft 445 kts 139°
2026-05-07 14:26 50.76053 1.92700 37067 ft 447 kts 139°
2026-05-07 14:26 50.71532 1.99443 37072 ft 448 kts 139°
2026-05-07 14:27 50.67010 2.06208 37068 ft 449 kts 139°
2026-05-07 14:27 50.63237 2.11844 37068 ft 449 kts 139°
2026-05-07 14:28 50.58691 2.18618 37067 ft 450 kts 139°
2026-05-07 14:28 50.54130 2.25394 37066 ft 451 kts 139°
2026-05-07 14:29 50.49564 2.32157 37066 ft 451 kts 139°
2026-05-07 14:29 50.44991 2.38912 37065 ft 451 kts 139°
2026-05-07 14:30 50.40415 2.45652 37064 ft 451 kts 139°
2026-05-07 14:30 50.35834 2.52382 37065 ft 451 kts 139°
2026-05-07 14:31 50.31287 2.59042 37073 ft 450 kts 139°
2026-05-07 14:31 50.26705 2.65735 37075 ft 451 kts 139°
2026-05-07 14:32 50.22117 2.72417 37071 ft 451 kts 139°
2026-05-07 14:32 50.17532 2.79080 37071 ft 450 kts 139°
2026-05-07 14:33 50.12948 2.85720 37077 ft 449 kts 139°
2026-05-07 14:33 50.08367 2.92339 37071 ft 449 kts 139°
2026-05-07 14:34 50.03786 2.98940 37070 ft 449 kts 140°
2026-05-07 14:34 49.99200 3.05530 37069 ft 449 kts 140°
2026-05-07 14:35 49.94609 3.12110 37070 ft 449 kts 140°
2026-05-07 14:35 49.90018 3.18673 37053 ft 449 kts 140°
2026-05-07 14:36 49.85417 3.25234 37067 ft 449 kts 140°
2026-05-07 14:36 49.80754 3.31660 37056 ft 448 kts 146°
2026-05-07 14:37 49.75397 3.36440 37070 ft 444 kts 155°
2026-05-07 14:37 49.67187 3.42992 37059 ft 445 kts 155°
2026-05-07 14:38 49.61699 3.47429 37068 ft 445 kts 155°
2026-05-07 14:38 49.56204 3.51898 37063 ft 447 kts 155°
2026-05-07 14:39 49.50710 3.56363 37066 ft 447 kts 155°
2026-05-07 14:39 49.45207 3.60823 37056 ft 447 kts 155°
2026-05-07 14:40 49.39731 3.65249 37073 ft 449 kts 155°
2026-05-07 14:40 49.34192 3.69712 37075 ft 450 kts 155°
2026-05-07 14:41 49.28640 3.74176 37063 ft 450 kts 155°
2026-05-07 14:41 49.23101 3.78618 37061 ft 449 kts 155°
2026-05-07 14:42 49.17573 3.83040 37050 ft 447 kts 155°
2026-05-07 14:42 49.12063 3.87436 37059 ft 446 kts 155°
2026-05-07 14:43 49.06570 3.91807 37054 ft 445 kts 155°
2026-05-07 14:43 49.01087 3.96160 37055 ft 444 kts 155°
2026-05-07 14:44 48.95605 4.00501 37053 ft 444 kts 155°
2026-05-07 14:44 48.90129 4.04827 37058 ft 444 kts 155°
2026-05-07 14:45 48.84679 4.09123 37050 ft 444 kts 155°
2026-05-07 14:45 48.79239 4.13584 37039 ft 446 kts 148°
2026-05-07 14:46 48.74691 4.20047 37040 ft 453 kts 129°
2026-05-07 14:46 48.71049 4.27844 37050 ft 454 kts 127°
2026-05-07 14:47 48.67455 4.35673 37046 ft 455 kts 127°
2026-05-07 14:47 48.63799 4.43505 37057 ft 456 kts 127°
2026-05-07 14:48 48.60124 4.51285 37057 ft 457 kts 128°
2026-05-07 14:48 48.56406 4.59118 37060 ft 458 kts 128°
2026-05-07 14:49 48.52681 4.66947 37056 ft 458 kts 128°
2026-05-07 14:49 48.48974 4.74717 37072 ft 459 kts 128°
2026-05-07 14:50 48.45227 4.82551 37067 ft 460 kts 128°
2026-05-07 14:50 48.41474 4.90375 37066 ft 460 kts 128°
2026-05-07 14:51 48.37737 4.98144 37063 ft 460 kts 128°
2026-05-07 14:51 48.33964 5.05969 37058 ft 460 kts 128°
2026-05-07 14:52 48.30278 5.13773 37045 ft 461 kts 122°
2026-05-07 14:52 48.27793 5.22674 37076 ft 464 kts 108°
2026-05-07 14:53 48.25987 5.31986 37052 ft 464 kts 107°
2026-05-07 14:53 48.24173 5.41287 37062 ft 464 kts 108°
2026-05-07 14:54 48.22324 5.50508 37056 ft 464 kts 108°
2026-05-07 14:54 48.20435 5.59781 37038 ft 464 kts 108°
2026-05-07 14:55 48.18549 5.68986 37046 ft 464 kts 108°
2026-05-07 14:55 48.16642 5.78256 37051 ft 464 kts 109°
2026-05-07 14:56 48.14733 5.87499 37048 ft 465 kts 109°
2026-05-07 14:56 48.12824 5.96696 37049 ft 465 kts 109°
2026-05-07 14:57 48.10896 6.05950 37044 ft 465 kts 109°
2026-05-07 14:57 48.08959 6.15200 37049 ft 465 kts 109°
2026-05-07 14:58 48.07027 6.24381 37045 ft 465 kts 109°
2026-05-07 14:58 48.05074 6.33627 37046 ft 465 kts 109°
2026-05-07 14:59 48.03126 6.42804 37038 ft 465 kts 109°
2026-05-07 14:59 48.01157 6.52042 37046 ft 466 kts 109°
2026-05-07 15:00 47.99177 6.61290 37041 ft 466 kts 109°
2026-05-07 15:00 47.97146 6.70415 37036 ft 466 kts 112°
2026-05-07 15:01 47.94730 6.79414 37031 ft 467 kts 114°
2026-05-07 15:01 47.92241 6.88332 37036 ft 467 kts 114°
2026-05-07 15:02 47.89761 6.97328 37032 ft 468 kts 114°
2026-05-07 15:02 47.87301 7.06323 37033 ft 468 kts 114°
2026-05-07 15:03 47.84848 7.15278 37043 ft 469 kts 114°
2026-05-07 15:03 47.82383 7.24232 37017 ft 470 kts 114°
2026-05-07 15:04 47.79896 7.33234 37015 ft 469 kts 114°
2026-05-07 15:04 47.77404 7.42222 37017 ft 468 kts 114°
2026-05-07 15:05 47.74929 7.51113 37018 ft 468 kts 114°
2026-05-07 15:05 47.71764 7.59460 37029 ft 462 kts 129°
2026-05-07 15:06 47.67905 7.67085 37024 ft 462 kts 130°
2026-05-07 15:06 47.64031 7.74706 37022 ft 463 kts 129°
2026-05-07 15:07 47.60185 7.82368 37022 ft 463 kts 129°
2026-05-07 15:07 47.56347 7.90041 37011 ft 464 kts 129°
2026-05-07 15:08 47.52506 7.97708 36999 ft 464 kts 129°
2026-05-07 15:08 47.48656 8.05365 37004 ft 464 kts 129°
2026-05-07 15:09 47.44802 8.13009 37004 ft 464 kts 129°
2026-05-07 15:09 47.40932 8.20661 37020 ft 465 kts 130°
2026-05-07 15:10 47.37054 8.28308 37004 ft 466 kts 130°
2026-05-07 15:10 47.33162 8.35964 37012 ft 466 kts 130°
2026-05-07 15:11 47.29262 8.43615 37023 ft 468 kts 130°
2026-05-07 15:11 47.25346 8.51283 37009 ft 469 kts 129°
2026-05-07 15:12 47.21488 8.59039 37020 ft 470 kts 129°
2026-05-07 15:12 47.17655 8.66829 37021 ft 470 kts 129°
2026-05-07 15:13 47.13838 8.74547 37019 ft 470 kts 129°
2026-05-07 15:13 47.09989 8.82286 37023 ft 469 kts 129°
2026-05-07 15:14 47.06135 8.90005 37017 ft 469 kts 129°
2026-05-07 15:14 47.02275 8.97711 36998 ft 468 kts 129°
2026-05-07 15:15 46.98419 9.05395 37007 ft 467 kts 130°
2026-05-07 15:15 46.94560 9.13057 37027 ft 468 kts 130°
2026-05-07 15:16 46.91338 9.19437 37013 ft 469 kts 130°
2026-05-07 15:16 46.87453 9.27115 37000 ft 470 kts 130°
2026-05-07 15:17 46.83562 9.34783 37014 ft 469 kts 130°
2026-05-07 15:17 46.79684 9.42406 37001 ft 469 kts 130°
2026-05-07 15:18 46.75790 9.50039 37011 ft 469 kts 130°
2026-05-07 15:18 46.71883 9.57674 37006 ft 470 kts 130°
2026-05-07 15:19 46.67958 9.65324 36996 ft 472 kts 130°
2026-05-07 15:19 46.64042 9.72935 37022 ft 475 kts 130°
2026-05-07 15:20 46.60066 9.80644 36986 ft 476 kts 130°
2026-05-07 15:20 46.56099 9.88318 36991 ft 474 kts 131°
2026-05-07 15:21 46.52139 9.95956 36972 ft 472 kts 131°
2026-05-07 15:21 46.48189 10.03544 36987 ft 470 kts 132°
2026-05-07 15:22 46.43825 10.10494 36984 ft 464 kts 139°
2026-05-07 15:22 46.39263 10.17024 37014 ft 463 kts 140°
2026-05-07 15:23 46.34670 10.23592 36985 ft 464 kts 140°
2026-05-07 15:23 46.30101 10.30205 36984 ft 465 kts 139°
2026-05-07 15:24 46.25542 10.36835 37007 ft 465 kts 139°
2026-05-07 15:24 46.20983 10.43461 36997 ft 465 kts 140°
2026-05-07 15:25 46.16432 10.50056 37011 ft 462 kts 140°
2026-05-07 15:25 46.11878 10.56635 36976 ft 463 kts 140°
2026-05-07 15:26 46.07321 10.63200 36962 ft 464 kts 140°
2026-05-07 15:26 46.02777 10.69739 37008 ft 466 kts 140°
2026-05-07 15:27 45.98172 10.76341 37019 ft 468 kts 140°
2026-05-07 15:27 45.93542 10.82964 36999 ft 471 kts 140°
2026-05-07 15:28 45.88881 10.89621 36990 ft 473 kts 140°
2026-05-07 15:28 45.84212 10.96271 36977 ft 473 kts 140°
2026-05-07 15:29 45.79547 11.02899 36974 ft 471 kts 140°
2026-05-07 15:29 45.74889 11.09499 36961 ft 471 kts 140°
2026-05-07 15:30 45.70247 11.16061 36962 ft 468 kts 140°
2026-05-07 15:30 45.65619 11.22585 36945 ft 465 kts 141°
2026-05-07 15:31 45.61011 11.29062 36946 ft 463 kts 140°
2026-05-07 15:31 45.56428 11.35492 36941 ft 461 kts 141°
2026-05-07 15:32 45.51849 11.41897 36952 ft 461 kts 141°
2026-05-07 15:32 45.47270 11.48287 36964 ft 461 kts 141°
2026-05-07 15:33 45.42676 11.54683 36969 ft 462 kts 141°
2026-05-07 15:33 45.38070 11.61081 36963 ft 463 kts 141°
2026-05-07 15:34 45.33447 11.67488 36956 ft 465 kts 142°
2026-05-07 15:34 45.28803 11.73907 36960 ft 467 kts 142°
2026-05-07 15:35 45.24145 11.80333 36962 ft 467 kts 142°
2026-05-07 15:35 45.19509 11.86714 36967 ft 467 kts 142°
2026-05-07 15:36 45.14843 11.93118 36946 ft 467 kts 142°
2026-05-07 15:36 45.10179 11.99508 36948 ft 465 kts 142°
2026-05-07 15:37 45.05529 12.05860 36964 ft 464 kts 142°
2026-05-07 15:37 45.00888 12.12184 36969 ft 463 kts 142°
2026-05-07 15:38 44.96260 12.18477 36971 ft 461 kts 142°
2026-05-07 15:38 44.91633 12.24753 36962 ft 460 kts 142°
2026-05-07 15:39 44.87018 12.30998 36967 ft 459 kts 142°
2026-05-07 15:39 44.82412 12.37215 36971 ft 458 kts 142°
2026-05-07 15:40 44.77812 12.43411 36980 ft 458 kts 142°
2026-05-07 15:40 44.73203 12.49603 36983 ft 458 kts 142°
2026-05-07 15:41 44.68595 12.55781 36960 ft 458 kts 143°
2026-05-07 15:41 44.63979 12.61954 36978 ft 458 kts 143°
2026-05-07 15:42 44.59390 12.68079 36984 ft 458 kts 143°
2026-05-07 15:42 44.54763 12.74238 36988 ft 459 kts 143°
2026-05-07 15:43 44.50125 12.80399 36988 ft 460 kts 143°
2026-05-07 15:43 44.45477 12.86560 36943 ft 460 kts 143°
2026-05-07 15:44 44.40823 12.92714 36976 ft 460 kts 143°
2026-05-07 15:44 44.36165 12.98858 36982 ft 461 kts 143°
2026-05-07 15:45 44.31497 13.05002 36980 ft 461 kts 143°
2026-05-07 15:45 44.26823 13.11141 36986 ft 461 kts 143°
2026-05-07 15:46 44.19802 13.20335 36985 ft 460 kts 143°
2026-05-07 15:47 44.15160 13.26395 36983 ft 461 kts 143°
2026-05-07 15:47 44.10478 13.32494 36992 ft 461 kts 143°
2026-05-07 15:48 44.05792 13.38584 36987 ft 461 kts 143°
2026-05-07 15:48 44.01106 13.44661 36986 ft 461 kts 143°
2026-05-07 15:49 43.96410 13.50738 36974 ft 461 kts 144°
2026-05-07 15:49 43.91705 13.56812 36990 ft 461 kts 144°
2026-05-07 15:50 43.87030 13.62833 36987 ft 461 kts 144°
2026-05-07 15:50 43.82317 13.68890 36991 ft 460 kts 144°
2026-05-07 15:51 43.77634 13.74895 36972 ft 461 kts 144°
2026-05-07 15:51 43.72924 13.80921 36992 ft 460 kts 144°
2026-05-07 15:52 43.68238 13.86903 36980 ft 460 kts 144°
2026-05-07 15:52 43.63519 13.92913 36993 ft 460 kts 144°
2026-05-07 15:53 43.58826 13.98876 37001 ft 461 kts 144°
2026-05-07 15:53 43.54103 14.04865 36974 ft 462 kts 144°
2026-05-07 15:54 43.49369 14.10855 36993 ft 462 kts 145°
2026-05-07 15:54 43.44621 14.16847 37003 ft 463 kts 145°
2026-05-07 15:55 43.39865 14.22837 36985 ft 464 kts 144°
2026-05-07 15:55 43.35103 14.28822 36995 ft 464 kts 144°
2026-05-07 15:56 43.30327 14.34811 36976 ft 465 kts 145°
2026-05-07 15:56 43.25545 14.40795 36992 ft 465 kts 145°
2026-05-07 15:57 43.20785 14.46736 36997 ft 466 kts 145°
2026-05-07 15:57 43.15980 14.52721 36995 ft 467 kts 145°
2026-05-07 15:58 43.11169 14.58701 36992 ft 467 kts 145°
2026-05-07 15:58 43.06349 14.64679 36985 ft 467 kts 145°
2026-05-07 15:59 43.01526 14.70647 36989 ft 467 kts 145°
2026-05-07 15:59 42.96708 14.76596 36993 ft 467 kts 145°
2026-05-07 16:00 42.91882 14.82541 36991 ft 467 kts 145°
2026-05-07 16:00 42.87051 14.88480 36996 ft 467 kts 145°
2026-05-07 16:01 42.82220 14.94405 36974 ft 467 kts 146°
2026-05-07 16:01 42.77387 15.00321 36986 ft 467 kts 146°
2026-05-07 16:02 42.72549 15.06226 36994 ft 468 kts 146°
2026-05-07 16:02 42.68514 15.11144 36997 ft 469 kts 146°
2026-05-07 16:03 42.62862 15.18017 36993 ft 470 kts 146°
2026-05-07 16:03 42.57986 15.23932 36985 ft 470 kts 147°
2026-05-07 16:04 42.53888 15.28893 36967 ft 471 kts 147°
2026-05-07 16:04 42.48983 15.34818 36991 ft 473 kts 147°
2026-05-07 16:05 42.44097 15.40709 36994 ft 474 kts 147°
2026-05-07 16:05 42.39158 15.46650 36991 ft 476 kts 147°
2026-05-07 16:06 42.34202 15.52600 36979 ft 477 kts 147°
2026-05-07 16:06 42.29232 15.58552 36989 ft 478 kts 147°
2026-05-07 16:07 42.24239 15.64518 36972 ft 480 kts 147°
2026-05-07 16:07 42.19230 15.70492 36987 ft 481 kts 147°
2026-05-07 16:08 42.14208 15.76468 36979 ft 482 kts 147°
2026-05-07 16:08 42.09166 15.82454 36963 ft 483 kts 148°
2026-05-07 16:09 42.04109 15.88444 36974 ft 485 kts 148°
2026-05-07 16:09 41.99036 15.94439 36989 ft 486 kts 148°
2026-05-07 16:10 41.93944 16.00444 36980 ft 488 kts 147°
2026-05-07 16:10 41.88838 16.06453 36980 ft 489 kts 147°
2026-05-07 16:11 41.83716 16.12467 36975 ft 488 kts 148°
2026-05-07 16:11 41.78598 16.18465 36983 ft 489 kts 148°
2026-05-07 16:12 41.73497 16.24429 36993 ft 490 kts 148°
2026-05-07 16:12 41.68349 16.30432 36990 ft 492 kts 149°
2026-05-07 16:13 41.63180 16.36448 36980 ft 493 kts 148°
2026-05-07 16:13 41.57995 16.42471 36989 ft 494 kts 148°
2026-05-07 16:14 41.52801 16.48489 36989 ft 495 kts 148°
2026-05-07 16:14 41.47595 16.54509 36989 ft 495 kts 148°
2026-05-07 16:15 41.42386 16.60519 36986 ft 495 kts 148°
2026-05-07 16:15 41.37178 16.66515 36957 ft 494 kts 150°
2026-05-07 16:16 41.31972 16.72493 36983 ft 495 kts 150°
2026-05-07 16:16 41.26753 16.78470 37006 ft 497 kts 150°
2026-05-07 16:17 41.21529 16.84440 37003 ft 499 kts 150°
2026-05-07 16:17 41.16209 16.90509 37010 ft 502 kts 150°
2026-05-07 16:18 41.10931 16.96518 37005 ft 504 kts 150°
2026-05-07 16:18 41.05602 17.02574 37010 ft 505 kts 150°
2026-05-07 16:19 41.00246 17.08646 37004 ft 507 kts 150°
2026-05-07 16:19 40.94882 17.14714 37018 ft 508 kts 150°
2026-05-07 16:20 40.89506 17.20782 36990 ft 508 kts 150°
2026-05-07 16:20 40.84135 17.26832 37015 ft 507 kts 150°
2026-05-07 16:21 40.78769 17.32862 37021 ft 506 kts 150°
2026-05-07 16:21 40.73452 17.38823 37025 ft 504 kts 151°
2026-05-07 16:22 40.68107 17.44802 37019 ft 503 kts 150°
2026-05-07 16:22 40.62774 17.50754 37002 ft 502 kts 150°
2026-05-07 16:23 40.57447 17.56686 37017 ft 501 kts 150°
2026-05-07 16:23 40.52132 17.62592 37028 ft 500 kts 151°
2026-05-07 16:24 40.46808 17.68494 37029 ft 500 kts 151°
2026-05-07 16:24 40.41492 17.74375 37031 ft 500 kts 151°
2026-05-07 16:25 40.36196 17.80223 37020 ft 500 kts 150°
2026-05-07 16:25 40.30859 17.86102 37021 ft 502 kts 150°
2026-05-07 16:26 40.25498 17.91994 36823 ft 505 kts 150°
2026-05-07 16:26 40.22806 17.94950 36548 ft 502 kts 150°
2026-05-07 16:26 40.20145 17.97875 36286 ft 496 kts 150°
2026-05-07 16:26 40.17516 18.00765 36018 ft 491 kts 151°
2026-05-07 16:27 40.14915 18.03617 35772 ft 487 kts 151°
2026-05-07 16:27 40.12318 18.06456 35500 ft 485 kts 150°
2026-05-07 16:27 40.09737 18.09272 35262 ft 483 kts 150°
2026-05-07 16:27 40.07164 18.12075 35021 ft 481 kts 150°
2026-05-07 16:28 40.04600 18.14866 34785 ft 479 kts 150°
2026-05-07 16:28 40.02041 18.17649 34546 ft 478 kts 150°
2026-05-07 16:28 39.99488 18.20424 34305 ft 477 kts 151°
2026-05-07 16:28 39.96943 18.23188 34086 ft 476 kts 151°
2026-05-07 16:29 39.94398 18.25948 33822 ft 475 kts 150°
2026-05-07 16:29 39.91865 18.28696 33542 ft 471 kts 150°
2026-05-07 16:29 39.89354 18.31420 33252 ft 466 kts 150°
2026-05-07 16:29 39.86861 18.34119 32987 ft 470 kts 149°
2026-05-07 16:30 39.84336 18.36832 32768 ft 484 kts 149°
2026-05-07 16:30 39.81703 18.39656 32550 ft 497 kts 149°
2026-05-07 16:30 39.79007 18.42555 32300 ft 506 kts 148°
2026-05-07 16:30 39.76311 18.45467 32016 ft 500 kts 148°
2026-05-07 16:31 39.73661 18.48341 31746 ft 491 kts 148°
2026-05-07 16:31 39.71066 18.51152 31489 ft 482 kts 148°
2026-05-07 16:31 39.68494 18.53924 31237 ft 478 kts 148°
2026-05-07 16:31 39.65937 18.56667 30992 ft 475 kts 148°
2026-05-07 16:32 39.63399 18.59384 30755 ft 472 kts 148°
2026-05-07 16:32 39.60873 18.62087 30471 ft 468 kts 148°
2026-05-07 16:32 39.58375 18.64760 30096 ft 463 kts 148°
2026-05-07 16:32 39.55902 18.67404 29635 ft 460 kts 147°
2026-05-07 16:33 39.53433 18.70039 29213 ft 460 kts 147°
2026-05-07 16:33 39.50965 18.72671 28769 ft 459 kts 147°
2026-05-07 16:33 39.48511 18.75290 28339 ft 455 kts 147°
2026-05-07 16:33 39.46103 18.77940 27883 ft 454 kts 143°
2026-05-07 16:34 39.43845 18.80790 27478 ft 452 kts 140°
2026-05-07 16:34 39.41693 18.83662 27048 ft 449 kts 139°
2026-05-07 16:34 39.39540 18.86565 26634 ft 446 kts 139°
2026-05-07 16:34 39.37389 18.89437 26211 ft 443 kts 140°
2026-05-07 16:35 39.35240 18.92268 25788 ft 440 kts 140°
2026-05-07 16:35 39.33095 18.95068 25357 ft 437 kts 140°
2026-05-07 16:35 39.30962 18.97841 24943 ft 434 kts 140°
2026-05-07 16:35 39.28837 19.00602 24537 ft 432 kts 140°
2026-05-07 16:36 39.26731 19.03346 24116 ft 430 kts 139°
2026-05-07 16:36 39.24631 19.06084 23693 ft 428 kts 139°
2026-05-07 16:36 39.22546 19.08806 23203 ft 425 kts 139°
2026-05-07 16:36 39.20471 19.11511 22752 ft 422 kts 139°
2026-05-07 16:37 39.18414 19.14192 22311 ft 418 kts 139°
2026-05-07 16:37 39.16376 19.16846 21891 ft 414 kts 139°
2026-05-07 16:37 39.14355 19.19475 21481 ft 411 kts 139°
2026-05-07 16:37 39.12376 19.22046 21077 ft 407 kts 139°
2026-05-07 16:38 39.10391 19.24621 20673 ft 403 kts 139°
2026-05-07 16:38 39.08424 19.27171 20279 ft 400 kts 139°
2026-05-07 16:38 39.06474 19.29698 19866 ft 396 kts 139°
2026-05-07 16:38 39.04537 19.32205 19480 ft 393 kts 139°
2026-05-07 16:39 39.02618 19.34686 19077 ft 390 kts 139°
2026-05-07 16:39 39.00714 19.37147 18680 ft 387 kts 139°
2026-05-07 16:39 38.98822 19.39589 18281 ft 384 kts 139°
2026-05-07 16:39 38.96942 19.42014 17821 ft 381 kts 139°
2026-05-07 16:40 38.95078 19.44418 17401 ft 377 kts 139°
2026-05-07 16:40 38.93236 19.46791 16986 ft 374 kts 139°
2026-05-07 16:40 38.91409 19.49143 16591 ft 370 kts 139°
2026-05-07 16:40 38.89603 19.51467 16203 ft 366 kts 139°
2026-05-07 16:41 38.87809 19.53772 15827 ft 362 kts 139°
2026-05-07 16:41 38.86035 19.56051 15445 ft 359 kts 139°
2026-05-07 16:41 38.84275 19.58310 15067 ft 356 kts 140°
2026-05-07 16:41 38.82530 19.60547 14679 ft 353 kts 140°
2026-05-07 16:42 38.80820 19.62737 14312 ft 351 kts 140°
2026-05-07 16:42 38.79101 19.64939 13934 ft 348 kts 140°
2026-05-07 16:42 38.77387 19.67130 13516 ft 346 kts 140°
2026-05-07 16:42 38.75691 19.69299 13112 ft 343 kts 140°
2026-05-07 16:43 38.74006 19.71452 12720 ft 340 kts 140°
2026-05-07 16:43 38.72339 19.73580 12340 ft 337 kts 140°
2026-05-07 16:43 38.70682 19.75695 11965 ft 334 kts 140°
2026-05-07 16:43 38.69043 19.77784 11595 ft 331 kts 140°
2026-05-07 16:44 38.67421 19.79851 11229 ft 328 kts 139°
2026-05-07 16:44 38.65810 19.81903 10853 ft 325 kts 139°
2026-05-07 16:44 38.64212 19.83936 10552 ft 321 kts 139°
2026-05-07 16:44 38.62653 19.85921 10371 ft 313 kts 139°
2026-05-07 16:45 38.61133 19.87855 10232 ft 303 kts 139°
2026-05-07 16:45 38.59658 19.89730 10099 ft 295 kts 139°
2026-05-07 16:45 38.58221 19.91556 9963 ft 287 kts 140°
2026-05-07 16:45 38.56835 19.93314 9954 ft 274 kts 140°
2026-05-07 16:46 38.55459 19.95056 9435 ft 281 kts 140°
2026-05-07 16:46 38.54070 19.96812 9069 ft 281 kts 139°
2026-05-07 16:46 38.52705 19.98539 8776 ft 279 kts 139°
2026-05-07 16:46 38.51329 20.00280 8482 ft 277 kts 139°
2026-05-07 16:47 38.49961 20.02010 8189 ft 276 kts 139°
2026-05-07 16:47 38.48601 20.03729 7903 ft 274 kts 139°
2026-05-07 16:47 38.47251 20.05436 7619 ft 272 kts 139°
2026-05-07 16:47 38.45909 20.07132 7340 ft 271 kts 139°
2026-05-07 16:48 38.44574 20.08817 7064 ft 269 kts 139°
2026-05-07 16:48 38.43244 20.10494 6785 ft 268 kts 139°
2026-05-07 16:48 38.41921 20.12162 6508 ft 267 kts 139°
2026-05-07 16:48 38.40603 20.13820 6203 ft 265 kts 139°
2026-05-07 16:49 38.39293 20.15464 5923 ft 263 kts 139°
2026-05-07 16:49 38.37991 20.17095 5647 ft 262 kts 138°
2026-05-07 16:49 38.36699 20.18715 5377 ft 259 kts 138°
2026-05-07 16:49 38.35429 20.20306 5102 ft 252 kts 138°
2026-05-07 16:50 38.34202 20.21843 4849 ft 243 kts 138°
2026-05-07 16:50 38.33018 20.23324 4594 ft 234 kts 138°
2026-05-07 16:50 38.31884 20.24757 4455 ft 225 kts 135°
2026-05-07 16:50 38.31156 20.26492 4369 ft 222 kts 109°
2026-05-07 16:51 38.30912 20.27738 4232 ft 217 kts 109°
2026-05-07 16:51 38.30552 20.29577 3995 ft 210 kts 109°
2026-05-07 16:51 38.30198 20.31345 3801 ft 200 kts 112°
2026-05-07 16:51 38.29501 20.32753 3567 ft 181 kts 141°
2026-05-07 16:52 38.28270 20.34098 3312 ft 172 kts 142°
2026-05-07 16:52 38.27605 20.35329 3088 ft 173 kts 108°
2026-05-07 16:52 38.27458 20.36334 3031 ft 171 kts 110°
2026-05-07 16:52 38.26843 20.37536 2893 ft 164 kts 149°
2026-05-07 16:53 38.25867 20.38291 2790 ft 162 kts 148°
2026-05-07 16:53 38.24937 20.39058 2775 ft 157 kts 149°
2026-05-07 16:53 38.24034 20.39806 2768 ft 157 kts 148°
2026-05-07 16:53 38.23114 20.40571 2719 ft 159 kts 148°
2026-05-07 16:54 38.22208 20.41327 2572 ft 151 kts 148°
2026-05-07 16:54 38.21346 20.42046 2376 ft 143 kts 148°
2026-05-07 16:54 38.20528 20.42728 2136 ft 140 kts 148°
2026-05-07 16:54 38.19728 20.43396 1925 ft 135 kts 147°
2026-05-07 16:55 38.18953 20.44044 1734 ft 133 kts 147°
2026-05-07 16:55 38.18190 20.44703 1507 ft 134 kts 145°
2026-05-07 16:55 38.17427 20.45405 1256 ft 137 kts 144°
2026-05-07 16:55 38.16676 20.46131 1034 ft 135 kts 144°
2026-05-07 16:56 38.15906 20.46818 767 ft 138 kts 147°
2026-05-07 16:56 38.15082 20.47462 541 ft 139 kts 146°
2026-05-07 16:56 38.13448 20.48831 227 ft 143 kts 142°
2026-05-07 16:57 38.12644 20.49502 51 ft 132 kts 144°
2026-05-07 16:57 38.12004 20.50045 64 ft 82 kts 145°
2026-05-07 16:57 38.11659 20.50339 64 ft 49 kts 146°
2026-05-07 16:57 38.11409 20.50549 59 ft 38 kts 147°
2026-05-07 16:58 38.11215 20.50712 55 ft 20 kts 145°
2026-05-07 16:58 38.11152 20.50800 56 ft 9 kts 123°
2026-05-07 16:58 38.11111 20.50821 55 ft 5 kts 226°
2026-05-07 16:58 38.11128 20.50785 58 ft 9 kts 323°
2026-05-07 16:59 38.11220 20.50708 55 ft 20 kts 327°
2026-05-07 16:59 38.11336 20.50612 55 ft 20 kts 327°
2026-05-07 16:59 38.11449 20.50518 58 ft 19 kts 327°
2026-05-07 16:59 38.11558 20.50427 59 ft 18 kts 326°
2026-05-07 17:00 38.11661 20.50339 59 ft 18 kts 326°
2026-05-07 17:00 38.11724 20.50314 65 ft 7 kts 17°
2026-05-07 17:00 38.11767 20.50335 66 ft 6 kts 24°
2026-05-07 17:00 38.11807 20.50363 65 ft 7 kts 38°
2026-05-07 17:01 38.11838 20.50412 65 ft 6 kts 56°
2026-05-07 17:01 38.11849 20.50432 67 ft 2 kts 56°
2026-05-07 17:01 38.11854 20.50442 61 ft 0 kts 56°